Flag for Canada Weather past 2 weeks in Inuvik, Northwest Territories, Canada

Now
12 °F

Broken clouds.


Feels Like: 3 °F
Forecast: 6 / 15 °F
Wind: 6 mph from Northeast

Location: Inuvik

Current Time: Oct 25, 2014 at 9:19:15 PM

Latest Report: Oct 25, 2014 at 8:00 PM


Visibility: 15 mi

Pressure: 29.90 "Hg

Humidity: 85%

Dew point: 9 °F

Location of InuvikLocation

Historic Weather in Inuvik — Graph

°F

Inuvik temperature yesterday

Maximum temperature yesterday: 16 °F (at 4:00 PM)
Minimum temperature yesterday: 12 °F (at 1:50 AM)
Average temperature yesterday: 13 °F

Past Weeks' High & Low Weather Summary

 TemperatureHumidityPressure
High32 °F (Oct 11, 1:00 PM)100% (Oct 11, 10:00 AM)30.07 "Hg (Oct 11, 10:00 AM)
Low9 °F (Oct 25, 2:00 AM)73% (Oct 21, 11:00 PM)29.37 "Hg (Oct 11, 2:00 AM)
Average22 °F88%29.82 "Hg
* Reported Oct 10 8:00 PM — Oct 25 8:00 PM, Inuvik, Weather by CustomWeather, © 2014

Note: Actual official high and low records may vary slightly from our data, if they occured in-between our weather recording intervals... More about our weather records

Advertising

Inuvik weather history for previous 24 hours

 ConditionsComfort  
Time TempWeatherWind HumidityBarometerVisibility
8:00 PM
Oct 25
12 °FBroken clouds.6 mph85%29.90 "Hg15 mi
7:00 PM12 °FBroken clouds.8 mph85%29.90 "Hg15 mi
6:00 PM16 °FScattered clouds.6 mph79%29.92 "Hg15 mi
5:00 PM16 °FBroken clouds.3 mph79%29.93 "Hg15 mi
4:00 PM18 °FPassing clouds.2 mph73%29.93 "Hg15 mi
3:00 PM16 °FPassing clouds.No wind79%29.93 "Hg15 mi
2:00 PM16 °FScattered clouds.No wind79%29.93 "Hg15 mi
1:00 PM10 °FPartly cloudy.No wind85%29.93 "Hg15 mi
12:00 PM10 °FPassing clouds.2 mph85%29.94 "Hg15 mi
11:00 AM12 °FPassing clouds.3 mph85%29.93 "Hg15 mi
10:00 AM14 °FPassing clouds.3 mph85%29.93 "Hg15 mi
9:00 AM14 °FOvercast.3 mph85%29.93 "Hg15 mi
8:00 AM14 °FOvercast.5 mph79%29.93 "Hg15 mi
7:00 AM12 °FOvercast.3 mph85%29.93 "Hg15 mi
6:00 AM10 °FOvercast.2 mph85%29.94 "Hg15 mi
5:00 AM10 °FOvercast.No wind85%29.94 "Hg15 mi
4:00 AM10 °FOvercast.3 mph85%29.93 "Hg15 mi
3:00 AM10 °FOvercast.5 mph85%29.91 "Hg15 mi
2:00 AM9 °FOvercast.3 mph92%29.91 "Hg15 mi
1:00 AM10 °FOvercast.No wind85%29.91 "Hg15 mi
12:00 AM10 °FOvercast.2 mph85%29.90 "Hg15 mi
11:00 PM
Oct 24
12 °FMostly cloudy.2 mph85%29.89 "Hg15 mi
10:00 PM12 °FPassing clouds.5 mph85%29.88 "Hg15 mi
9:00 PM12 °FLight snow. Partly sunny.3 mph85%29.88 "Hg15 mi
Weather by CustomWeather, © 2014

See weather overviewHow to use our weather pages